Regional Weather Roundup
Issued by NWS Grand Forks, ND

Home | Current Version | Previous Version | Text Only | Print | Product List | Glossary On
Versions: 1 2 3 4 5 6 7 8 9 10 11 12 13 14 15 16 17 18 19 20 21 22 23 24 25 26 27 28 29 30 31 32 33 34 35 36 37 38 39 40 41 42 43 44 45 46 47 48 49 50
000
ASUS43 KFGF 172010
RWRFGF
PRAIRIE TO PINES  WEATHER ROUNDUP
NATIONAL WEATHER SERVICE EASTERN NORTH DAKOTA/GRAND FORKS ND
300 PM CDT THU AUG 17 2017

 **SATELLITE DATA USED TO AUGMENT SKY COVER AT AUTOMATED STATIONS**
 *****  WEATHER ACROSS EASTERN NORTH DAKOTA  *****

CITY           SKY/WX    TMP DP  RH WIND       PRES   REMARKS
GRAND FORKS    FAIR      79  62  56 NW9       29.84S
GRAND FRKS AFB FAIR      76  60  56 NW3       29.85F
DEVILS LAKE    FAIR      77  55  46 NW6       29.88S
FARGO          FAIR      78  60  53 NW10      29.84R
WAHPETON ARPT  FAIR      73  61  64 NW14      29.85R
$$

 ***** WEATHER ACROSS CENTRAL AND WESTERN NORTH DAKOTA  *****

CITY           SKY/WX    TMP DP  RH WIND       PRES   REMARKS
BISMARCK       FAIR      82  53  36 SE13      29.86S
MINOT          FAIR      84  48  28 SE14G21   29.83F
JAMESTOWN      FAIR      78  56  46 N6        29.87F
MINOT AFB      MOSUNNY   83  48  28 S13G18    29.82S
GARRISON         N/A     79  57  46 S14       29.83F
WILLISTON      FAIR      85  52  32 VRB3      29.83S
DICKINSON      FAIR      85  45  24 NW14      29.86S
HETTINGER      FAIR      84  48  28 NW8       29.90S
$$

 *****  OTHER AIRPORT OBSERVATIONS IN OUR AREA  *****

CITY           SKY/WX    TMP DP  RH WIND       PRES   REMARKS
WALHALLA       FAIR      79  79 100 W8        29.83S
GRAFTON AIRPOR FAIR      77  61  57 VRB5G12   29.85S
VALLEY CITY AR   N/A     77  59  53 VRB5G12   29.89S
CANDO          FAIR      79  52  38 CALM      29.89S
CAVALIER APRT  FAIR      79  59  50 NW8       29.82F
GWINNER        CLEAR     79  57  47 N7G13     29.87S
ROLLA          FAIR      77  54  44 VRB5      29.89S
 ***** THE ABOVE OBSERVATIONS ARE NON NWS ARE NOT QUALITY
       CONTROLLED AND MAY MIS-REPORT RAIN FOR SNOW...
$$

  *****  WEATHER ACROSS NORTHERN MINNESOTA  *****

CITY           SKY/WX    TMP DP  RH WIND       PRES   REMARKS
FLAG ISLAND    FAIR      73  55  53 CALM      29.80S
WARROAD        FAIR      72  63  73 E5        29.82F
ROSEAU         FAIR      77  61  57 NW8       29.82S
HALLOCK        FAIR      79  55  44 NW8       29.82S
THF RVR FALLS  FAIR      76  55  48 N12G21    29.84R
BAUDETTE       FAIR      71  59  65 N9        29.81S
WASKISH        CLOUDY    68  55  64 N8G16     29.81R
CROOKSTON      FAIR      79  59  50 N9G17     29.83S
STEPHEN NDAWN    N/A     79  59  50 NW8         N/A
GREENBUSH NDAW   N/A    N/A N/A N/A NW10        N/A
$$
  *****  WEATHER ACROSS CENTRAL AND WEST MINNESOTA  *****

CITY           SKY/WX    TMP DP  RH WIND       PRES   REMARKS
FOSSTON        PTSUNNY   77  59  53 N12G20    29.83S
BEMIDJI        PTSUNNY   70  59  68 N14       29.81R
PARK RAPIDS    CLOUDY    71  60  68 NW16      29.81R
ELBOW LAKE     FAIR      72  61  69 NW12G17   29.84R HAZE
WADENA         FAIR      70  61  73 N13       29.81R
DETROIT LAKES  FAIR      72  59  64 N10G17    29.85R
MOORHEAD       FAIR      75  61  60 N6        29.84S
FERGUS FALLS   FAIR      73  63  68 NW12G18   29.83R
MORRIS MN      FAIR      75  64  69 NW18G24   29.83R
STAPLES        CLOUDY    68  61  77 N12G18    29.80S
$$
  *****  WEATHER ELSEWHERE ACROSS MINNESOTA  *****

CITY           SKY/WX    TMP DP  RH WIND       PRES   REMARKS
DULUTH         LGT RAIN  62  62 100 N14G20    29.68R FOG
INTRNTL FALLS  CLOUDY    65  59  81 N9        29.79R
ELY            LGT RAIN  61  61 100 N7        29.70S
CLOQUET        CLOUDY    63  61  94 NW12G18   29.69S
WHEATON        FAIR      75  61  60 W13       29.86S
BRAINERD       CLOUDY    67  60  78 NW13      29.77R
HIBBING        CLOUDY    63  60  90 N13       29.73R
ALEXANDRIA     PTSUNNY   72  61  68 NW12      29.84R
SAINT CLOUD    CLOUDY    69  63  81 NW17G25   29.76R
MINNEAPOLIS    CLOUDY    72  61  68 NW18G24   29.72R
$$

  *****  WEATHER ACROSS SOUTH DAKOTA  *****

CITY           SKY/WX    TMP DP  RH WIND       PRES   REMARKS
SIOUX FALLS    FAIR      79  60  52 NW14      29.89S
BROOKINGS      FAIR      75  62  64 NW14      29.89S
WATERTOWN      FAIR      75  59  57 NW10      29.89S
HURON          FAIR      80  58  46 NW3       29.89F
SISSETON         N/A     77  58  51 N13       29.85S
ABERDEEN       FAIR      80  54  40 NE6       29.88F
MITCHELL       FAIR      81  59  47 CALM      29.90F
PIERRE         FAIR      86  51  29 SE16G23   29.84F
MOBRIDGE       FAIR      82  55  39 SE13      29.84F
RAPID CITY     PTSUNNY   85  41  21 MISG      29.92R
$$

  *****  SOME WEATHER IN NEARBY STATES *****

CITY           SKY/WX    TMP DP  RH WIND       PRES   REMARKS
GLASGOW MT     FAIR      87  37  17 NW21G31   29.89R
GREAT FALLS MT PTSUNNY   80  37  21 NW9       30.03F
CHEYENNE WY    FAIR      74  38  27 S7        30.17S
SCOTTSBLUFF NE FAIR      86  47  25 NW5       30.00F
OMAHA NE       FAIR      82  57  42 NW17      29.92S
DES MOINES IA  PTSUNNY   82  62  50 W16       29.84S
DAVENPORT IA   FAIR      80  65  59 W25G33    29.79F
CHICAGO IL     PTSUNNY   82  65  56 W22G29    29.72S
EAU CLAIRE WI  CLOUDY    68  63  84 W18G29    29.62R
LA CROSSE WI   CLOUDY    76  65  68 W21       29.64R
$$

  *****  SOME NATIONAL WEATHER *****

CITY           SKY/WX    TMP DP  RH WIND       PRES   REMARKS
LA GUARDIA NY  FAIR      80  61  52 S10G17    29.99F
RALEIGH NC     HVY RAIN  83  77  82 S14       29.97S FOG     HX  92
ATLANTA GA     FAIR      89  72  56 W12       30.04F HX  96
NEW ORLEANS LA PTSUNNY   89  76  65 SE7       30.05S HX 100
OKLAHOMA CITY  FAIR      89  67  47 N7        30.04S HX  92
ALBUQUERQUE NM FAIR      86  35  16 W3        30.21F
SALT LAKE CITY FAIR      89  39  17 W9        30.11F
LOS ANGELES CA FAIR      74  63  68 W10G17    30.01F
BOISE ID       FAIR      84  45  25 N9        30.10F
SEATTLE WA     PTSUNNY   68  56  65 W5        30.20F
$$

*** WEATHER ACROSS MANITOBA...SASKATCHEWAN AND ONTARIO ***
                ***ONTARIO***

CITY           SKY/WX    TMP DP  RH WIND       PRES   REMARKS
GERALDTON      LGT RAIN  61  59  94 E12       29.78S FOG
THUNDER BAY    LGT RAIN  61  61 100 NE16G24   29.65F
SIOUX LOOKOUT  CLOUDY    61  55  82 VRB2      29.81S
TORONTO        LGT RAIN  66  63  88 E10       29.88F
BIG TROUT LK   SUNNY     73  59  60 SW3       29.80F
PICKLE LAKE    CLOUDY    66  55  68 E9        29.82S
DRYDEN         SUNNY     68  57  68 E8        29.80S
KENORA         PTSUNNY   72  57  60 N7        29.82S
$$
                *** MANITOBA***

CITY           SKY/WX    TMP DP  RH WIND       PRES   REMARKS
BRANDON        PTSUNNY   77  54  44 NW6       29.85F
DAUPHIN        SUNNY     79  50  36 W3        29.83S
ISLAND LAKE    MOSUNNY   72  57  60 SW6       29.77F
PILOT MOUND      N/A     77  45  31 NW7         N/A
THE PAS        PTSUNNY   73  52  46 W9        29.77F
THOMPSON       MOSUNNY   79  45  29 SW10G21   29.69F
WINNIPEG       NOT AVBL
LYNN LAKE      PTSUNNY   73  41  31 MISG      29.65F
CHURCHILL      MOSUNNY   72  61  68 S12G18    29.66F
GILLAM         PTSUNNY   75  54  46 SW8       29.71F
$$
                ***SASKATCHEWAN***

CITY           SKY/WX    TMP DP  RH WIND       PRES   REMARKS
ESTEVAN        CLOUDY    81  55  41 E8        29.84S
KINDERSLEY     PTSUNNY   75  45  33 NW8G17    29.94F
LLOYDMINSTER   MOSUNNY   72  50  46 W15G23    29.91S
PRINCE ALBERT  MOSUNNY   75  52  43 W10G17    29.84S
REGINA         CLOUDY    79  48  34 W7G17     29.89F
YORKTON        SUNNY     79  50  36 W14G20    29.85S
N. BATTLEFORD  MOSUNNY   75  50  41 W18G25    29.90F
LA RONGE       MOSUNNY   75  50  41 W12G18    29.75F
SASKATOON      MOSUNNY   77  50  38 NW14G21   29.89S
SWIFT CURRENT  PTSUNNY   75  45  33 N10       29.95S
$$
NOTE: THESE ARE AUTOMATED STATIONS WITH LIMITED QUALITY CONTROL
      "FAIR" INDICATES FEW OR NO CLOUDS BELOW 12,000 FEET WITH NO
      SIGNIFICANT WEATHER AND/OR OBSTRUCTIONS TO VISIBILITY.
      SKY/WX - SKY CONDITION AND SIGNIFICANT WEATHER.
      TMP - AIR TEMPERATURE.    DP   - DEWPOINT TEMPERATURE.
      RH  - RELATIVE HUMIDITY.  PRES - PRESSURE.
      HX  - HEAT INDEX.         WCI  - WIND CHILL INDEX.
$




USA.gov is the U.S. government's official web portal to all federal, state and local government web resources and services.